Weather reports worldwide

Advertisment
Verhnedvinsk, Belarus (26554): temperature & dewpoint: 06.12.2018 16:00:00 - 12.12.2018 16:00:00 (MSK)Verhnedvinsk, Belarus (26554): wind speed: 06.12.2018 16:00:00 - 12.12.2018 16:00:00 (MSK)Verhnedvinsk, Belarus (26554): wind direction: 06.12.2018 16:00:00 - 12.12.2018 16:00:00 (MSK)Verhnedvinsk, Belarus (26554): reduced air pressure: 06.12.2018 16:00:00 - 12.12.2018 16:00:00 (MSK)Verhnedvinsk, Belarus (26554): visibility: 06.12.2018 16:00:00 - 12.12.2018 16:00:00 (MSK)
Date & Time tt [°C] td [°C] ff [km/h] ff [kn] dd ppp [hPa] vv [km]
12.12.2018 16:00:00 - - - - - - -
12.12.2018 15:00:00 0,8 0,8 7 4 NNE 1021,7 8
12.12.2018 14:00:00 - - - - - - -
12.12.2018 13:00:00 - - - - - - -
12.12.2018 12:00:00 0,9 0,9 7 4 N 1021,8 3,4
12.12.2018 11:00:00 - - - - - - -
12.12.2018 10:00:00 - - - - - - -
12.12.2018 09:00:00 0,7 0,7 7 4 NNE 1020,0 3,2
12.12.2018 08:00:00 - - - - - - -
12.12.2018 07:00:00 - - - - - - -
12.12.2018 06:00:00 0,7 0,7 4 2 NNE 1018,4 1,2
12.12.2018 05:00:00 - - - - - - -
12.12.2018 04:00:00 - - - - - - -
12.12.2018 03:00:00 0,7 0,7 4 2 NNE 1017,2 2,7
12.12.2018 02:00:00 - - - - - - -
12.12.2018 01:00:00 - - - - - - -
12.12.2018 00:00:00 0,9 0,9 4 2 N 1016,4 0,3
11.12.2018 23:00:00 - - - - - - -
11.12.2018 22:00:00 - - - - - - -
11.12.2018 21:00:00 1,0 1,0 0 0 N 1014,5 0,4
11.12.2018 20:00:00 - - - - - - -
11.12.2018 19:00:00 - - - - - - -
11.12.2018 18:00:00 1,6 1,6 4 2 N 1012,6 0,2
11.12.2018 17:00:00 - - - - - - -
11.12.2018 16:00:00 - - - - - - -
11.12.2018 15:00:00 1,5 1,5 4 2 NNW 1010,7 0,3
11.12.2018 14:00:00 - - - - - - -
11.12.2018 13:00:00 - - - - - - -
11.12.2018 12:00:00 1,4 1,4 0 0 N 1009,3 0,4
11.12.2018 11:00:00 - - - - - - -
11.12.2018 10:00:00 - - - - - - -
11.12.2018 09:00:00 0,8 0,8 4 2 E 1007,1 0,2
11.12.2018 08:00:00 - - - - - - -
11.12.2018 07:00:00 - - - - - - -
11.12.2018 06:00:00 0,9 0,9 4 2 ESE 1005,6 0,3
11.12.2018 05:00:00 - - - - - - -
11.12.2018 04:00:00 - - - - - - -
11.12.2018 03:00:00 1,2 1,2 4 2 SE 1004,3 1,2
11.12.2018 02:00:00 - - - - - - -
11.12.2018 01:00:00 - - - - - - -
11.12.2018 00:00:00 1,7 1,7 4 2 SSE 1002,9 1,5
10.12.2018 23:00:00 - - - - - - -
10.12.2018 22:00:00 - - - - - - -
10.12.2018 21:00:00 2,1 2,1 7 4 S 1001,4 1,7
10.12.2018 20:00:00 - - - - - - -
10.12.2018 19:00:00 - - - - - - -
10.12.2018 18:00:00 2,5 2,5 11 6 S 999,8 3,1
10.12.2018 17:00:00 - - - - - - -
10.12.2018 16:00:00 - - - - - - -
10.12.2018 15:00:00 2,4 2,4 7 4 S 997,9 7
10.12.2018 14:00:00 - - - - - - -
10.12.2018 13:00:00 - - - - - - -
10.12.2018 12:00:00 1,4 1,4 11 6 SSE 996,6 1,4
10.12.2018 11:00:00 - - - - - - -
10.12.2018 10:00:00 - - - - - - -
10.12.2018 09:00:00 0,4 0,4 11 6 SSE 995,8 3,2
10.12.2018 08:00:00 - - - - - - -
10.12.2018 07:00:00 - - - - - - -
10.12.2018 06:00:00 0,2 0,1 18 10 SE 995,6 2,7
10.12.2018 05:00:00 - - - - - - -
10.12.2018 04:00:00 - - - - - - -
10.12.2018 03:00:00 0,5 0,4 14 8 SE 996,2 4,2
10.12.2018 02:00:00 - - - - - - -
10.12.2018 01:00:00 - - - - - - -
10.12.2018 00:00:00 0,7 0,4 14 8 SSE 997,1 5
09.12.2018 23:00:00 - - - - - - -
09.12.2018 22:00:00 - - - - - - -
09.12.2018 21:00:00 0,7 0,7 11 6 SE 997,3 5
09.12.2018 20:00:00 - - - - - - -
09.12.2018 19:00:00 - - - - - - -
09.12.2018 18:00:00 0,9 0,4 11 6 SE 997,9 7
09.12.2018 17:00:00 - - - - - - -
09.12.2018 16:00:00 - - - - - - -
09.12.2018 15:00:00 1,3 1,1 11 6 SE 998,5 10
09.12.2018 14:00:00 - - - - - - -
09.12.2018 13:00:00 - - - - - - -
09.12.2018 12:00:00 0,9 0,9 11 6 SSE 999,7 8
09.12.2018 11:00:00 - - - - - - -
09.12.2018 10:00:00 - - - - - - -
09.12.2018 09:00:00 0,2 0,2 14 8 SSE 1000,0 3,6
09.12.2018 08:00:00 - - - - - - -
09.12.2018 07:00:00 - - - - - - -
09.12.2018 06:00:00 0,4 0,4 11 6 SSE 1000,1 2,5
09.12.2018 05:00:00 - - - - - - -
09.12.2018 04:00:00 - - - - - - -
09.12.2018 03:00:00 0,3 0,3 11 6 S 1001,2 0,6
09.12.2018 02:00:00 - - - - - - -
09.12.2018 01:00:00 - - - - - - -
09.12.2018 00:00:00 -0,7 -0,7 7 4 SSE 1001,6 3,0
08.12.2018 23:00:00 - - - - - - -
08.12.2018 22:00:00 - - - - - - -
08.12.2018 21:00:00 -1,7 -1,7 11 6 SE 1001,2 3,5
08.12.2018 20:00:00 - - - - - - -
08.12.2018 19:00:00 - - - - - - -
08.12.2018 18:00:00 -2,0 -2,0 11 6 SSE 1001,2 1,7
08.12.2018 17:00:00 - - - - - - -
08.12.2018 16:00:00 - - - - - - -
08.12.2018 15:00:00 -2,1 -2,8 14 8 SSE 1001,5 3,8
08.12.2018 14:00:00 - - - - - - -
08.12.2018 13:00:00 - - - - - - -
08.12.2018 12:00:00 -2,4 -2,6 14 8 SSE 1003,2 7
08.12.2018 11:00:00 - - - - - - -
08.12.2018 10:00:00 - - - - - - -
08.12.2018 09:00:00 -2,6 -2,6 14 8 SE 1003,8 7
08.12.2018 08:00:00 - - - - - - -
08.12.2018 07:00:00 - - - - - - -
08.12.2018 06:00:00 -2,7 -3,3 14 8 SE 1004,9 4,8
08.12.2018 05:00:00 - - - - - - -
08.12.2018 04:00:00 - - - - - - -
08.12.2018 03:00:00 -2,4 -3,0 14 8 SE 1006,1 7
08.12.2018 02:00:00 - - - - - - -
08.12.2018 01:00:00 - - - - - - -
08.12.2018 00:00:00 -2,5 -2,5 11 6 S 1007,9 4,5
07.12.2018 23:00:00 - - - - - - -
07.12.2018 22:00:00 - - - - - - -
07.12.2018 21:00:00 -2,7 -3,4 14 8 SSE 1008,9 9
07.12.2018 20:00:00 - - - - - - -
07.12.2018 19:00:00 - - - - - - -
07.12.2018 18:00:00 -3,6 -4,8 14 8 ESE 1011,1 6
07.12.2018 17:00:00 - - - - - - -
07.12.2018 16:00:00 - - - - - - -
07.12.2018 15:00:00 -3,8 -4,3 14 8 SE 1012,8 10
07.12.2018 14:00:00 - - - - - - -
07.12.2018 13:00:00 - - - - - - -
07.12.2018 12:00:00 -5,2 -5,2 11 6 S 1015,5 8
07.12.2018 11:00:00 - - - - - - -
07.12.2018 10:00:00 - - - - - - -
07.12.2018 09:00:00 -5,5 -5,5 7 4 SSE 1017,3 7
07.12.2018 08:00:00 - - - - - - -
07.12.2018 07:00:00 - - - - - - -
07.12.2018 06:00:00 -5,3 -5,3 11 6 S 1019,0 0,7
07.12.2018 05:00:00 - - - - - - -
07.12.2018 04:00:00 - - - - - - -
07.12.2018 03:00:00 -2,5 -2,5 7 4 S 1020,6 0,4
07.12.2018 02:00:00 - - - - - - -
07.12.2018 01:00:00 - - - - - - -
07.12.2018 00:00:00 -1,5 -1,5 4 2 SW 1021,6 4,5
06.12.2018 23:00:00 - - - - - - -
06.12.2018 22:00:00 - - - - - - -
06.12.2018 21:00:00 -0,9 -1,5 7 4 SSW 1021,9 10
06.12.2018 20:00:00 - - - - - - -
06.12.2018 19:00:00 - - - - - - -
06.12.2018 18:00:00 -1,2 -2,0 7 4 SSW 1022,3 10
06.12.2018 17:00:00 - - - - - - -
06.12.2018 16:00:00 - - - - - - -

tt = temperature
td = dewpoint
ff = wind speed
dd = wind direction
ppp = reduced air pressure
vv = visibility

Next stations